Willimantic, CT

1:40 AM EDT on October 21, 2019 (GMT -0400)
Windham

Weather History for KIJD - August, 2019

Change the Weather History Date:

Saturday, August 3, 2019

  Actual Average Record
Temperature  
Mean Temperature 73 °F -  
Max Temperature 86 °F 84 °F 100 °F (1975)
Min Temperature 60 °F 60 °F 40 °F (1956)
Cooling Degree Days 8    
Growing Degree Days 23 (Base 50)    
Moisture  
Dew Point 64 °F    
Average Humidity 78    
Maximum Humidity 96    
Minimum Humidity 49    
Precipitation  
Precipitation 0.00 in - - ()
Sea Level Pressure  
Sea Level Pressure 30.03 in    
Wind  
Wind Speed 3 mph (SSW)    
Max Wind Speed 15 mph    
Max Gust Speed 21 mph    
Visibility 9 miles    
Events Fog    
Averages and records for this station are not official NWS values.
T = Trace of Precipitation, MM = Missing Value Source: NWS Daily Summary

Daily Weather History Graph

Daily Weather History Graph

Search for Another Location

Airport or City:

Astronomy

Aug. 03, 2019 Rise Set
Actual Time 5:44 AM EDT 8:04 PM EDT
Civil Twilight 5:13 AM EDT 8:35 PM EDT
Nautical Twilight 4:34 AM EDT 9:14 PM EDT
Astronomical Twilight 3:51 AM EDT 9:56 PM EDT
Moon 8:35 AM EDT (8/3) 10:05 PM EDT (8/3)
Length of Visible Light 15h 22m
Length of Day
14h 20m
Waxing Crescent, 10% of the Moon is Illuminated
Aug 3
Waxing Crescent
Aug 7
First Quarter
Aug 15
Full
Aug 23
Last Quarter
Aug 30
New

Hourly Weather History & Observations

Time (EDT) Temp. Heat Index Dew Point Humidity Pressure Visibility Wind Dir Wind Speed Gust Speed Precip Events Conditions
12:52 AM 64.9 °F - 61.0 °F 87% 30.12 in 10.0 mi Calm Calm - N/A   Clear
1:52 AM 64.0 °F - 61.0 °F 90% 30.10 in 10.0 mi Calm Calm - N/A   Clear
2:52 AM 63.0 °F - 61.0 °F 93% 30.09 in 10.0 mi Calm Calm - N/A   Clear
3:52 AM 62.1 °F - 60.1 °F 93% 30.09 in 10.0 mi Calm Calm - N/A   Clear
4:52 AM 61.0 °F - 59.0 °F 93% 30.08 in 10.0 mi NNE 3.5 mph - N/A   Clear
5:50 AM 60.8 °F - 59.0 °F 94% 30.09 in 10.0 mi Calm Calm - N/A   Scattered Clouds
5:52 AM 61.0 °F - 59.0 °F 93% 30.08 in 10.0 mi Calm Calm - N/A   Mostly Cloudy
6:26 AM 62.1 °F - 60.1 °F 93% 30.09 in 1.0 mi Calm Calm - N/A   Overcast
6:29 AM 62.1 °F - 61.0 °F 96% 30.09 in 0.2 mi Calm Calm - N/A Fog Fog
6:44 AM 62.1 °F - 61.0 °F 96% 30.09 in 1.0 mi North - - N/A   Overcast
6:47 AM 62.6 °F - 60.8 °F 94% 30.09 in 3.0 mi North - - N/A   Overcast
6:52 AM 62.1 °F - 61.0 °F 96% 30.09 in 4.0 mi Calm Calm - N/A   Overcast
7:32 AM 64.9 °F - 62.1 °F 90% 30.09 in 10.0 mi Calm Calm - N/A   Overcast
8:21 AM 70.0 °F - 64.9 °F 84% 30.08 in 10.0 mi Calm Calm - N/A   Scattered Clouds
8:52 AM 73.9 °F - 68.0 °F 82% 30.07 in 10.0 mi South 5.8 mph - N/A   Mostly Cloudy
9:52 AM 77.0 °F - 66.0 °F 69% 30.06 in 10.0 mi SSW 8.1 mph - N/A   Mostly Cloudy
10:52 AM 80.1 °F 81.5 °F 63.0 °F 56% 30.05 in 10.0 mi SW 9.2 mph - N/A   Clear
11:52 AM 81.0 °F 82.5 °F 64.0 °F 56% 30.04 in 10.0 mi SSW 9.2 mph - N/A   Mostly Cloudy
12:52 PM 82.9 °F 84.0 °F 63.0 °F 51% 30.02 in 10.0 mi Variable 5.8 mph - N/A   Clear
1:52 PM 84.9 °F 86.6 °F 64.9 °F 51% 29.99 in 10.0 mi SW 11.5 mph 18.4 mph N/A   Scattered Clouds
2:52 PM 84.0 °F 85.4 °F 64.0 °F 51% 29.98 in 10.0 mi SSW 13.8 mph 20.7 mph N/A   Scattered Clouds
3:52 PM 86.0 °F 87.6 °F 64.9 °F 49% 29.95 in 10.0 mi SSW 11.5 mph - N/A   Scattered Clouds
4:52 PM 82.9 °F 85.0 °F 66.0 °F 56% 29.95 in 10.0 mi South 15.0 mph - N/A   Scattered Clouds
5:52 PM 81.0 °F 83.0 °F 66.0 °F 60% 29.94 in 10.0 mi SSW 11.5 mph - N/A   Clear
6:52 PM 79.0 °F - 66.0 °F 64% 29.94 in 10.0 mi South 8.1 mph - N/A   Clear
7:52 PM 78.1 °F - 66.9 °F 68% 29.94 in 10.0 mi South 9.2 mph - N/A   Clear
8:52 PM 75.9 °F - 68.0 °F 76% 29.95 in 10.0 mi South 8.1 mph - N/A   Partly Cloudy
9:52 PM 75.0 °F - 69.1 °F 82% 29.95 in 10.0 mi South 5.8 mph - N/A   Mostly Cloudy
10:52 PM 73.9 °F - 69.1 °F 85% 29.95 in 10.0 mi South 4.6 mph - N/A   Partly Cloudy
11:25 PM 73.9 °F - 69.1 °F 85% 29.95 in 10.0 mi SSW 4.6 mph - N/A   Mostly Cloudy
11:52 PM 73.9 °F - 69.1 °F 85% 29.95 in 10.0 mi Calm Calm - N/A   Mostly Cloudy